RH
23 23 23 23 22 22 21 21 21 21 21 21 20 18 18 18 18 18 18 18 18 17 17 16 16 16 16 16 16 17 19 19 19 20 22 24 24 25 25 26 29 31 33 35 36 37 38 39 39 38 38 38 37 37 38 38 39 40 40 39 38 37 36 37 38 37 36 36 36 35 35 35 35 35 35 35 36 36 36 36 36 36 37 38 39
22 22 22 23 22 21 21 20 20 21 21 21 20 19 18 17 17 18 18 17 17 17 16 15 15 15 14 14 14 15 17 18 19 19 20 21 23 24 24 24 25 26 29 31 32 35 36 37 38 38 37 37 37 37 37 37 38 39 39 39 39 38 38 37 38 39 37 35 36 36 36 36 37 37 37 38 39 39 39 38 38 37 36 37 39
21 21 22 22 22 22 21 20 20 20 21 20 20 20 19 18 17 17 16 16 16 16 15 15 14 14 13 13 14 15 15 17 18 19 19 20 21 23 24 24 24 24 25 26 27 31 33 34 35 35 35 35 36 36 36 36 37 37 37 37 37 37 37 37 39 39 38 37 37 37 37 38 39 39 40 41 42 42 42 41 40 39 39 38 37
22 22 22 21 22 22 21 21 20 20 20 20 20 20 19 18 17 16 15 15 14 14 14 14 14 14 13 12 13 14 15 15 17 17 19 20 21 22 23 23 24 24 23 24 24 26 29 30 31 32 33 33 34 34 35 35 36 36 36 36 37 37 37 38 38 39 39 39 39 39 39 40 40 40 41 42 43 44 44 43 43 43 42 40 38
23 22 22 22 22 22 21 21 21 20 20 20 20 20 20 19 17 15 15 15 14 14 14 14 14 13 13 12 12 14 15 16 17 18 20 22 23 22 22 21 22 22 23 23 23 23 25 25 27 29 31 31 31 31 32 33 34 35 35 35 36 36 37 37 38 39 40 40 39 40 40 40 41 41 41 43 44 44 44 43 44 45 45 44 42
25 24 23 22 22 22 22 21 21 20 20 20 20 20 20 19 18 16 15 15 15 14 14 14 14 13 12 12 13 14 15 17 19 21 23 25 25 24 23 22 21 20 20 21 22 22 22 23 25 28 29 29 28 28 28 30 31 33 33 33 34 35 35 36 37 38 39 39 39 39 39 40 41 40 40 42 43 43 42 41 41 42 43 42 41
28 26 24 23 22 21 21 21 21 20 20 20 20 20 20 20 18 17 16 15 15 15 14 14 14 13 12 13 14 15 17 19 21 23 25 25 25 25 24 24 23 21 20 20 21 21 22 23 24 26 27 26 25 25 27 28 28 29 29 30 31 32 33 34 36 37 38 38 38 38 39 40 40 39 39 40 41 40 39 37 38 38 38 38 38
29 27 26 24 22 21 21 20 20 20 20 21 21 21 20 20 19 18 16 16 15 14 15 15 14 14 14 14 15 16 19 21 23 24 24 24 23 23 23 23 22 22 22 21 21 22 23 24 24 25 25 25 23 24 25 25 26 26 26 27 28 29 31 32 34 35 37 37 38 37 37 38 39 38 37 38 38 37 36 36 35 35 36 36 38
28 27 26 24 21 21 20 20 20 20 21 21 21 21 21 20 19 18 17 16 15 15 15 15 15 15 16 16 16 17 20 22 23 23 23 22 22 21 21 21 22 22 22 22 22 23 22 23 24 24 25 25 24 25 25 26 27 26 26 27 29 31 32 33 35 35 36 37 37 37 37 38 38 37 37 37 37 36 37 36 36 37 39 39 41
27 27 25 23 21 21 20 20 20 20 20 21 21 21 21 21 21 20 18 16 16 16 16 16 16 16 16 16 17 19 21 22 22 22 22 21 20 19 20 20 21 21 22 22 23 22 22 22 22 22 23 23 24 25 26 27 28 28 28 30 32 34 35 35 35 36 37 38 38 39 40 40 40 40 40 41 41 40 40 41 41 43 45 45 45
27 27 25 24 24 23 21 21 20 20 20 20 21 21 21 22 22 21 19 18 17 16 16 17 17 17 17 17 18 20 22 22 22 22 21 21 19 18 18 19 19 20 21 22 22 21 22 22 22 21 21 21 22 24 25 27 29 30 31 33 35 36 37 37 37 37 39 40 40 42 44 45 45 47 48 49 49 49 50 51 51 52 54 53 50
27 27 26 26 26 24 23 22 21 21 21 20 21 21 22 22 22 21 21 19 18 17 17 18 18 19 19 19 20 21 22 22 22 23 22 21 20 18 17 18 18 19 20 20 20 20 20 21 22 20 20 21 22 24 26 28 30 33 34 35 37 38 40 40 40 42 44 47 48 51 54 54 54 55 57 56 54 55 56 57 58 58 58 58 55
27 28 28 27 27 26 25 24 22 21 21 21 21 21 22 22 22 22 21 21 20 19 19 20 20 21 22 22 22 22 22 23 23 23 23 22 21 20 18 18 18 18 18 19 19 19 20 20 20 20 20 22 24 26 29 31 33 36 37 39 40 42 44 46 50 53 56 58 58 59 61 60 56 56 58 58 56 57 57 58 59 60 60 61 60
29 29 29 29 29 28 28 27 26 24 23 22 22 22 22 22 23 23 24 23 23 23 22 22 23 23 25 25 25 24 24 24 24 24 24 24 22 21 20 19 19 18 18 19 19 19 19 19 20 20 21 24 26 29 32 34 37 40 43 45 47 50 54 58 61 64 65 65 62 59 61 60 55 55 58 58 57 57 57 59 61 63 65 65 62
32 33 33 32 32 32 32 31 31 30 29 28 27 25 24 24 24 25 25 26 26 26 25 25 25 26 27 28 29 28 27 27 26 26 26 25 24 23 22 21 21 20 20 20 20 19 19 20 21 22 23 26 29 33 36 40 44 47 50 52 54 57 61 64 67 69 69 67 63 60 61 61 60 59 59 59 57 57 61 65 65 66 67 62 55
36 36 36 36 35 35 34 34 35 35 36 36 35 34 33 32 31 31 30 31 31 30 31 31 31 32 33 34 33 32 30 29 29 30 28 27 27 26 25 24 23 22 22 22 22 21 21 22 23 24 26 30 33 38 43 47 51 52 53 54 56 59 63 66 69 70 70 69 68 67 67 66 66 63 60 59 57 60 65 64 60 65 65 56 47
40 40 39 38 37 38 39 41 42 43 44 44 45 45 46 47 47 46 44 43 41 40 40 40 39 39 38 38 37 36 35 33 33 33 32 32 31 29 27 26 25 25 25 25 25 24 24 25 27 29 32 37 41 45 48 51 52 52 52 53 56 61 64 67 68 69 70 71 72 71 70 67 64 58 55 55 54 59 64 55 49 58 59 50 44
44 45 43 41 41 43 44 45 47 48 49 50 50 50 51 52 52 52 51 51 50 49 48 47 46 45 43 42 41 41 40 39 37 37 37 36 35 32 30 29 29 28 28 28 28 28 29 30 32 36 40 43 46 48 51 52 51 52 52 53 56 60 62 65 66 67 68 68 67 65 62 59 55 50 49 48 49 54 59 49 43 48 49 45 44
45 46 45 43 43 44 43 43 45 46 48 48 48 49 49 49 49 50 50 51 51 51 51 51 50 50 49 48 48 47 46 44 42 42 42 41 39 36 34 33 33 31 31 30 31 32 33 36 40 44 46 48 48 50 52 52 53 53 54 54 54 57 59 62 65 65 63 60 58 56 53 51 51 49 47 46 44 46 48 44 42 45 46 46 46
48 49 48 45 44 43 41 41 42 43 44 45 45 46 46 46 47 47 48 48 49 49 50 50 50 50 50 50 51 51 51 50 49 47 46 45 43 39 37 37 36 35 34 34 34 35 38 42 45 47 49 49 50 52 53 54 54 54 55 54 53 56 59 62 66 66 61 56 53 51 50 51 51 49 45 43 41 40 40 40 40 41 41 41 40
54 52 49 45 43 43 42 42 42 42 43 44 44 45 45 45 45 45 45 46 47 48 49 49 49 49 48 48 48 49 51 52 54 54 52 49 47 44 42 41 39 38 37 37 38 40 42 45 47 48 50 51 52 53 54 55 55 55 54 54 55 59 63 66 68 66 59 53 52 50 50 50 48 45 42 39 38 37 35 33 32 31 32 33 34
51 50 47 44 43 43 42 42 42 42 43 44 44 45 45 46 46 45 46 45 46 46 46 47 47 46 46 47 46 46 47 49 52 55 55 54 52 49 46 44 42 41 40 40 41 43 45 47 48 49 51 51 52 54 54 55 55 55 55 57 59 63 65 68 69 64 55 52 52 51 50 47 44 42 40 38 34 31 28 27 27 27 29 32 36
50 50 49 47 47 46 44 43 42 42 43 44 44 44 45 45 46 46 46 47 46 45 45 45 45 45 45 46 46 46 48 50 51 52 52 53 54 53 49 46 45 44 43 43 44 45 46 48 49 51 52 52 53 54 55 55 55 55 57 60 62 63 65 67 66 60 54 53 54 52 50 48 43 39 36 32 28 25 25 26 26 27 28 31 34
50 49 49 48 48 47 46 45 44 43 44 44 45 44 44 43 44 44 46 47 47 47 46 45 45 45 45 45 46 47 51 54 56 56 53 51 51 53 51 49 47 46 45 45 46 47 48 49 50 51 52 53 54 55 56 56 57 58 59 62 62 63 65 65 62 56 54 55 55 53 51 46 39 33 30 26 25 25 26 26 25 26 28 30 31
50 49 48 47 48 47 46 46 45 44 44 44 43 44 43 43 43 43 44 46 47 48 48 47 46 45 44 44 45 46 48 51 54 57 57 54 52 52 52 52 51 50 48 48 48 48 49 50 51 51 52 53 55 56 56 57 58 59 60 62 62 64 65 63 57 54 54 53 51 48 44 38 32 29 28 26 26 27 26 25 24 24 25 28 28
49 48 47 46 46 46 46 46 45 44 43 44 42 42 42 41 41 41 42 43 44 45 47 47 48 47 46 45 44 45 46 48 49 52 56 57 56 55 55 55 55 53 50 49 50 50 50 51 52 52 53 54 56 56 57 58 58 59 60 61 63 65 65 59 53 50 48 46 44 40 36 33 30 29 28 27 27 27 26 24 23 22 23 25 25
44 43 43 43 45 46 46 46 45 44 44 44 43 43 42 40 40 40 40 41 41 42 43 44 45 46 46 45 45 44 45 46 48 49 51 54 56 57 58 58 58 56 53 51 49 49 50 51 52 52 53 54 55 56 57 57 57 58 61 63 65 64 61 53 46 43 43 42 41 37 32 30 30 29 28 28 28 27 26 24 22 22 22 24 24
41 40 40 40 41 42 42 44 45 45 45 45 44 43 43 42 41 41 40 41 41 41 41 41 41 42 42 43 43 44 43 44 46 48 49 51 52 55 58 59 59 57 56 54 51 50 50 51 51 52 53 54 55 56 56 56 57 60 62 63 60 56 52 47 44 43 44 43 38 33 30 30 30 29 29 28 28 27 26 24 22 22 23 24 24
40 40 40 39 38 37 36 37 40 42 43 44 43 43 43 42 42 42 41 41 42 42 42 41 41 41 41 41 41 41 42 43 45 47 49 50 51 53 54 56 58 58 57 56 55 54 53 52 53 53 54 54 55 55 56 57 59 59 57 54 51 51 50 48 45 45 43 39 34 31 30 30 30 29 29 29 28 27 25 23 22 23 25 26 26
38 37 37 37 38 36 35 35 36 36 38 40 41 41 42 41 41 41 41 41 42 42 42 41 41 40 40 41 41 41 41 43 44 47 48 50 52 53 53 53 55 56 57 57 57 56 55 56 56 56 57 57 57 56 56 56 54 52 50 50 51 52 49 43 40 40 39 35 32 31 31 30 30 30 29 29 29 27 25 23 23 26 27 28 29
34 33 32 32 33 34 34 34 34 34 35 37 38 39 39 39 39 38 38 38 39 39 39 38 38 38 37 37 38 38 38 39 41 44 46 48 51 53 54 54 54 54 55 55 54 54 54 55 56 57 56 56 54 54 53 51 49 49 50 50 48 44 38 34 35 37 36 34 32 32 32 30 31 30 30 30 29 26 24 24 26 29 31 31 32
31 33 32 30 30 30 30 30 31 32 32 34 34 35 36 36 36 35 34 33 33 32 33 33 34 35 34 33 34 34 35 35 36 38 41 45 48 50 53 55 55 55 53 51 51 52 53 54 54 54 53 52 52 51 50 48 47 46 44 41 38 34 33 33 35 35 34 34 34 34 33 32 31 31 30 30 28 25 25 27 29 31 33 34 34
30 32 32 30 30 30 28 28 28 28 29 29 30 31 31 31 31 30 30 29 28 28 29 30 30 31 31 31 32 31 31 32 35 36 38 41 44 48 51 53 54 53 53 54 56 59 60 61 60 58 56 54 51 48 49 49 47 44 39 37 36 36 35 35 35 33 34 34 34 34 33 33 32 32 31 30 28 26 27 30 31 33 35 36 36
31 32 31 30 30 30 30 29 28 27 27 27 28 29 29 29 28 29 29 28 28 28 28 29 29 30 30 31 32 32 32 33 36 38 38 38 40 43 47 52 55 58 60 63 64 65 64 63 62 60 59 57 54 53 56 55 48 43 41 40 39 39 37 34 33 34 34 34 34 34 34 33 32 32 31 30 28 28 30 33 33 34 37 39 39
33 33 32 31 30 31 31 31 29 28 27 27 28 29 29 29 29 30 30 30 31 31 30 30 30 31 32 33 33 35 38 40 41 40 38 37 39 42 48 55 61 64 66 65 64 63 61 58 57 58 59 60 59 60 63 58 49 44 42 41 40 39 36 34 34 34 34 34 34 34 34 33 33 34 32 30 29 30 33 35 34 36 40 42 42
35 34 33 32 32 33 33 33 33 31 30 30 30 30 31 31 31 32 32 33 33 33 33 32 32 32 33 34 35 38 43 45 45 43 42 42 44 47 50 56 60 63 64 63 59 58 57 56 57 58 57 58 59 60 58 54 47 44 42 41 40 38 36 34 35 35 35 34 35 35 35 34 34 35 33 31 31 33 36 37 37 39 43 44 43
34 33 33 33 33 34 35 34 34 34 33 32 32 31 32 33 33 34 35 35 35 35 35 34 34 34 34 35 37 41 43 44 46 47 47 49 53 55 55 55 57 57 56 53 51 51 53 55 57 57 56 57 58 55 50 47 45 43 42 42 41 39 36 36 36 35 35 35 36 37 36 35 36 36 34 33 34 36 39 40 40 41 45 47 45
33 33 34 34 33 34 35 35 36 36 35 35 34 34 34 34 35 37 38 38 37 37 37 37 37 38 39 40 41 43 44 45 48 52 52 51 54 55 53 51 51 50 47 46 47 52 56 59 60 60 58 58 55 51 46 44 44 44 43 43 40 38 37 37 37 37 37 38 38 39 38 37 38 38 36 35 37 40 42 43 42 43 46 48 46
32 32 33 34 32 31 32 34 36 37 37 38 38 37 37 37 38 39 40 41 41 41 41 42 42 43 45 46 45 46 47 48 51 57 61 60 58 56 53 50 50 50 52 53 55 58 61 63 62 61 57 55 52 49 47 47 47 46 44 42 39 38 39 39 39 38 39 40 41 42 41 40 40 40 38 38 40 43 45 46 45 44 47 49 47
35 34 34 35 34 33 32 33 35 37 38 40 41 41 41 43 45 46 46 48 49 48 47 49 51 50 49 49 49 51 54 55 57 61 65 64 62 62 63 62 61 60 61 61 62 63 63 61 59 56 53 51 50 49 49 49 48 46 43 41 40 41 41 41 41 42 43 44 45 45 44 44 43 42 41 42 44 46 48 49 48 46 48 49 48
38 38 37 37 37 35 33 33 34 36 38 40 44 47 49 52 54 58 59 60 61 60 59 60 62 60 55 54 56 57 59 62 64 63 61 62 63 66 69 70 70 69 70 70 70 69 65 59 54 52 51 50 50 49 49 48 47 45 44 43 43 43 43 44 45 45 46 47 48 48 48 47 46 46 47 48 48 49 50 52 53 51 50 50 50
41 40 39 39 39 37 35 35 35 36 38 40 43 47 50 53 57 63 66 68 69 69 67 66 65 62 59 59 62 60 58 60 63 62 59 62 66 67 68 69 70 69 70 69 67 64 58 54 52 52 51 50 50 49 49 48 47 46 45 45 45 45 46 46 47 48 49 50 50 50 51 50 49 50 52 53 52 51 52 55 57 57 56 54 53
43 42 41 40 40 40 39 37 36 37 38 40 41 43 44 47 51 57 63 64 65 65 66 66 65 63 63 65 67 63 60 62 67 68 68 69 70 67 65 64 62 59 59 57 56 55 54 53 53 53 52 51 51 51 50 50 48 48 47 47 47 47 48 49 50 50 50 50 50 51 52 53 54 55 56 56 56 56 57 58 60 60 59 58 57
45 44 42 41 42 42 42 40 38 38 38 40 42 42 42 43 45 52 59 63 63 62 64 68 70 70 69 70 70 67 63 64 68 71 71 70 68 64 60 57 55 54 54 53 54 55 55 55 55 55 54 54 54 53 52 51 50 49 49 49 49 49 50 50 52 51 51 52 52 52 52 54 57 58 59 59 60 60 61 63 63 62 61 60 61
48 45 43 42 44 45 45 43 42 40 39 39 40 42 43 42 43 48 56 62 64 64 65 68 71 70 68 67 67 68 67 66 67 67 67 65 63 60 58 55 54 54 55 55 56 58 57 57 58 58 57 57 56 55 54 53 53 52 52 52 51 51 51 51 52 53 54 55 56 55 56 58 59 61 61 61 62 63 64 66 67 66 63 62 63
50 46 43 45 47 47 47 45 44 42 41 40 41 44 46 45 44 47 53 57 60 63 63 64 66 67 66 66 68 68 68 68 66 66 65 64 62 61 59 57 57 57 57 59 60 59 59 60 60 59 59 58 57 56 55 55 54 54 54 53 52 52 53 54 55 56 58 59 59 60 62 63 62 63 63 63 63 64 64 67 69 69 66 65 66
49 46 46 48 50 49 48 47 45 44 45 45 45 46 47 48 49 54 60 62 62 63 62 61 61 62 64 66 66 66 66 66 66 65 66 66 64 62 60 59 59 60 60 61 62 62 62 62 60 59 58 57 56 56 56 56 55 55 55 54 54 54 55 57 60 61 63 62 63 64 66 66 64 63 63 64 65 65 64 66 69 70 69 68 68
48 47 48 50 52 51 50 50 50 51 51 50 50 52 55 56 56 59 62 64 65 66 66 65 64 64 64 65 64 64 64 64 65 65 65 64 63 61 60 60 61 62 62 63 64 63 63 62 60 58 56 55 55 55 55 54 54 53 53 53 54 55 57 59 62 64 65 66 67 68 67 66 65 64 63 64 65 67 66 68 71 73 73 72 71
48 47 48 49 49 50 50 52 54 56 55 55 56 61 64 64 62 62 64 65 65 66 68 69 68 67 65 64 63 63 62 63 64 66 65 62 60 61 60 61 62 63 63 64 64 63 62 61 59 57 55 54 54 53 53 53 53 53 53 54 55 57 59 61 63 65 68 69 70 68 66 65 64 64 63 63 66 68 70 73 76 77 76 74 74
49 49 48 49 49 50 51 54 58 60 60 60 60 61 62 62 62 63 67 70 68 66 66 69 71 70 69 67 65 63 63 61 62 63 64 62 62 63 64 63 64 64 63 62 62 61 60 59 58 57 56 55 55 54 54 53 54 55 56 57 59 61 63 65 68 70 71 70 68 67 66 65 63 62 61 62 65 68 72 75 77 79 79 78 77
53 53 55 56 57 58 58 60 62 62 62 62 61 60 59 59 60 62 65 68 69 69 69 71 72 72 72 71 68 65 64 62 62 62 64 65 65 65 65 64 63 62 61 60 59 59 59 59 59 59 59 58 57 57 57 57 59 60 61 62 65 68 71 72 72 71 69 67 66 66 66 66 64 62 61 60 61 65 70 74 77 79 81 81 81